Regional Weather Roundup
Issued by NWS Northern Indiana

Home | Current Version | Previous Version | Graphics & Text | Print | Product List | Glossary On
Versions: 1 2 3 4 5 6 7 8 9 10 11 12 13 14 15 16 17 18 19 20 21 22 23 24 25 26 27 28 29 30 31 32 33 34 35 36 37 38 39 40 41 42 43 44 45 46 47 48 49 50
000
ASUS43 KIWX 301800
RWRIWX

KIWX WEATHER ROUNDUP
NATIONAL WEATHER SERVICE NORTHERN INDIANA
200 PM EDT TUE SEP 30 2014

NOTE: "FAIR" INDICATES FEW OR NO CLOUDS BELOW 12,000 FEET WITH NO
SIGNIFICANT WEATHER AND/OR OBSTRUCTIONS TO VISIBILITY.

* THESE STATIONS ARE NOT UNDER NWS QUALITY CONTROL. THEY ALSO MAY NOT
  REPORT WEATHER SUCH AS PRECIPITATION OR FOG.

INZ001>027-301900-
NORTHERN INDIANA

CITY           SKY/WX    TMP DP  RH WIND       PRES   REMARKS
GARY*          PTSUNNY   61  50  67 N14       30.04F
SOUTH BEND     NOT AVBL
ELKHART*       CLOUDY    55  45  67 NE7       30.02S
ANGOLA*        CLOUDY    54  46  76 N6        30.00S
FORT WAYNE     CLOUDY    55  47  74 VRB6      30.00F
6HR MIN TEMP:  51; 6HR MAX TEMP:  55; 6HR PCP: TRACE;

PERU/GRISSOM   SUNNY     62  53  72 VRB5      29.98F
6HR MIN TEMP:  53; 6HR MAX TEMP:  62;


$$
INZ028>050-301900-
CENTRAL INDIANA

CITY           SKY/WX    TMP DP  RH WIND       PRES   REMARKS
LAFAYETTE      MOSUNNY   64  52  64 N8        29.99F
6HR MIN TEMP:  54; 6HR MAX TEMP:  64;

KOKOMO*        SUNNY     64  48  55 N6        29.99S
6HR MIN TEMP:  54; 6HR MAX TEMP:  64;

MUNCIE*        CLOUDY    61  52  72 NE5       29.98F
6HR MIN TEMP:  56; 6HR MAX TEMP:  61;

INDIANAPOLIS   MOSUNNY   68  54  60 NW7       29.96F
6HR MIN TEMP:  57; 6HR MAX TEMP:  68;


$$
MIZ043>046-050>051-056>058-064>065-071>073-077>080-301900-
SOUTHWEST LOWER MICHIGAN

CITY           SKY/WX    TMP DP  RH WIND       PRES   REMARKS
BATTLE CREEK   CLOUDY    56  46  69 N12       30.00F
6HR MIN TEMP:  49; 6HR MAX TEMP:  58; 6HR PCP: TRACE;

COLDWATER*     CLOUDY    56  49  78 N7        29.99F
6HR MIN TEMP:  49; 6HR MAX TEMP:  56;

HILLSDALE*     CLOUDY    55  50  85 N5        29.99S
HOLLAND        CLOUDY    56  46  69 CALM      30.03
6HR MIN TEMP:  49; 6HR MAX TEMP:  56;

GRAND RAPIDS   CLOUDY    56  49  77 N10       30.01F
6HR MIN TEMP:  49; 6HR MAX TEMP:  57;

KALAMAZOO      CLOUDY    54  46  74 NW7       30.02S
6HR MIN TEMP:  48; 6HR MAX TEMP:  54; 6HR PCP: TRACE;

STURGIS*       CLOUDY    54  48  82 N5        30.00S
THREE RIVERS*  CLOUDY    54  47  78 NW5       30.02S

$$
OHZ001>008-015>018-024>025-301900-
NORTHWEST OHIO

CITY           SKY/WX    TMP DP  RH WIND       PRES   REMARKS
DEFIANCE       CLOUDY    57  46  66 NW6       29.99S
6HR MIN TEMP:  51; 6HR MAX TEMP:  57;

FINDLAY        CLOUDY    58  49  72 N7        29.96F
6HR MIN TEMP:  53; 6HR MAX TEMP:  59; 6HR PCP:  0.03;

TOLEDO EXPRESS CLOUDY    57  49  74 N3        29.97S
6HR MIN TEMP:  50; 6HR MAX TEMP:  58; 6HR PCP: TRACE;

TOLEDO METCALF CLOUDY    57  50  77 N8        29.98S
6HR MIN TEMP:  52; 6HR MAX TEMP:  58;

LIMA             N/A    N/A N/A N/A MISG      29.98S

$$
AND FOR LAKE MICHIGAN COASTAL AND OPEN LAKE BUOY OBSERVATIONS

STATION/POSITION TEMP    WIND        PRES    VSBY  WAVE
                 AIR SEA DIR/SP/G                  HT/PER
                 (F)     (DEG/KT/KT) (MB)    (MI)  (FT/S)
CALUMET HARBOR    55     340/ 11/ 16 1016.0F
MICHIGAN CITY     54     360/ 14/ 18   N/A
SAINT JOSEPH      54      10/  6/ 12 1017.3S
SOUTH LAKE BUOY   53 62   20/ 16/ 17 1017.2R         5/ 7
4 MI NW BRIDGMAN  54 62  350/ 12/ 16   N/A           5/ 2
MICHIGAN CITY     55 64   20/ 12/ 19   N/A           6/ 2
MICHIGAN CITY CG     64                N/A       6   7

$$
&&



USA.gov is the U.S. government's official web portal to all federal, state and local government web resources and services.